This is the latest recevied weather packets stored in our database for station/object N9DMT-13. If no packets are shown the sender has not sent any weather packets the latest 10 day(s).
| Time | Temp. | Humidity | Pressure | Rain* | Wind** | Luminosity | Snow |
|---|---|---|---|---|---|---|---|
| 1778164219 | 9.44° C | 52% | 981.2 hPa | 0 mm | - | - | - |
| 1778163918 | 9.44° C | 51% | 981.2 hPa | 0 mm | - | - | - |
| 1778163617 | 8.89° C | 54% | 981.4 hPa | 0 mm | - | - | - |
| 1778163316 | 8.33° C | 56% | 981.2 hPa | 0 mm | - | - | - |
| 1778163015 | 7.78° C | 56% | 981.2 hPa | 0 mm | - | - | - |
| 1778162714 | 7.78° C | 58% | 981.5 hPa | 0 mm | - | - | - |
| 1778162414 | 7.22° C | 57% | 981.5 hPa | 0 mm | - | - | - |
| 1778162113 | 6.67° C | 59% | 981.4 hPa | 0 mm | - | - | - |
| 1778161812 | 6.67° C | 61% | 981.4 hPa | 0 mm | - | - | - |
| 1778161511 | 6.67° C | 61% | 981.8 hPa | 0 mm | - | - | - |
| 1778161210 | 6.11° C | 61% | 981.5 hPa | 0 mm | - | - | - |
| 1778160910 | 5.56° C | 66% | 981.7 hPa | 0 mm | - | - | - |
| 1778160609 | 4.44° C | 69% | 981.8 hPa | 0 mm | - | - | - |
| 1778160308 | 4.44° C | 71% | 982.1 hPa | 0 mm | - | - | - |
| 1778160007 | 4.44° C | 73% | 981.9 hPa | 0 mm | - | - | - |
| 1778159706 | 3.89° C | 73% | 982 hPa | 0 mm | - | - | - |
| 1778159405 | 3.33° C | 76% | 982.1 hPa | 0 mm | - | - | - |
| 1778159105 | 2.78° C | 77% | 982 hPa | 0 mm | - | - | - |
| 1778158804 | 2.22° C | 77% | 981.9 hPa | 0 mm | - | - | - |
| 1778158503 | 2.22° C | 80% | 982.1 hPa | 0 mm | - | - | - |
| 1778158202 | 1.67° C | 81% | 982.1 hPa | 0 mm | - | - | - |
| 1778157901 | 1.67° C | 82% | 982 hPa | 0 mm | - | - | - |
| 1778157600 | 1.67° C | 83% | 982 hPa | 0 mm | - | - | - |
| 1778157299 | 1.67° C | 81% | 981.9 hPa | 0 mm | - | - | - |
| 1778156998 | 2.22° C | 80% | 982 hPa | 0 mm | - | - | - |
* Rain latest hour (hover to see other rain measurements)
** Current wind speed in m/s (hover to see current wind gust speed)